Wind_Speed
8 7 5 5 5 5 6 7 8 8 9 9 9 10 10 10 11 11 10 10 9 9 9 10 10 10 10 10 11 10 10 10 10 10 10 9 9 7 6 5 5 4 4
6 5 3 2 3 4 5 6 7 8 8 8 9 9 9 9 10 11 10 10 9 9 8 8 9 9 9 9 9 9 9 9 9 9 9 9 8 7 6 5 5 4 3
4 3 2 1 2 4 5 6 7 8 8 8 8 9 9 9 9 10 10 10 10 9 9 9 8 8 8 8 8 9 9 8 8 8 8 8 8 7 6 6 4 4 3
3 2 1 1 2 4 5 6 7 8 9 9 9 9 9 8 9 9 10 10 10 10 10 9 9 9 8 8 8 8 8 8 7 7 7 7 7 7 6 6 5 4 4
3 3 2 1 2 3 4 6 7 8 9 9 9 9 9 8 8 8 9 9 9 10 10 10 10 10 10 9 9 8 8 8 7 7 6 6 7 7 7 6 6 5 5
4 4 3 2 2 3 4 5 7 8 8 9 9 9 8 8 8 8 8 8 8 9 10 10 10 10 10 10 9 9 9 8 8 8 7 7 8 7 7 7 7 7 5
6 6 5 5 4 4 5 5 6 7 8 9 9 9 9 8 8 7 7 7 7 8 8 9 9 10 11 11 10 10 9 9 8 7 7 7 8 8 8 8 7 8 6
8 8 8 8 7 7 7 7 7 8 9 9 9 10 9 9 9 8 8 8 8 8 8 9 9 9 10 11 11 10 10 10 9 8 8 8 8 8 8 8 8 8 8
11 11 11 12 11 10 9 9 10 10 10 11 11 11 11 10 10 10 10 9 9 9 9 10 10 10 10 11 11 11 11 10 10 10 9 9 9 9 9 9 9 9 9
14 14 14 15 15 14 13 12 12 12 12 12 13 13 13 12 12 12 12 11 11 11 11 11 11 11 11 11 11 11 12 12 11 11 11 11 10 10 10 10 10 10 10
15 15 16 17 17 17 16 15 14 14 14 14 14 15 14 14 13 14 14 14 14 14 14 14 14 14 14 13 13 13 13 13 13 12 12 12 12 11 11 11 11 11 11
14 15 15 16 17 17 17 17 16 16 16 16 17 17 16 15 15 15 16 16 16 17 17 17 17 17 17 16 15 15 15 14 13 13 13 13 13 12 12 12 12 12 12
14 15 15 15 16 17 17 18 18 18 18 19 19 19 18 18 17 17 18 18 19 20 20 20 20 21 21 20 19 19 18 17 16 15 14 14 14 14 13 13 13 13 14
16 17 17 17 18 19 19 20 20 21 21 21 22 22 22 22 21 21 21 21 22 23 23 23 23 24 24 24 23 23 23 21 20 18 17 16 16 15 15 14 14 15 15
21 21 21 21 22 22 23 23 24 24 24 25 25 26 27 27 26 26 26 26 27 27 27 27 27 27 27 27 27 27 27 26 24 22 20 19 18 18 17 17 17 16 16
26 26 26 26 26 27 27 28 28 28 28 29 29 29 30 31 31 31 31 31 32 32 32 32 31 31 31 31 31 32 32 31 29 27 25 23 22 21 20 19 19 19 18
31 31 30 31 31 31 31 32 32 33 33 33 33 33 34 35 35 35 35 36 36 36 36 36 36 35 35 35 35 35 36 35 33 32 30 27 25 24 23 22 21 21 21
37 36 35 36 36 36 37 37 37 37 37 37 37 37 37 38 38 38 39 39 40 40 40 40 40 39 39 39 38 38 38 38 37 36 35 32 30 28 26 25 24 24 23
42 41 41 41 41 41 41 41 40 40 40 40 41 41 40 40 40 41 42 42 42 43 44 44 43 42 41 41 42 41 40 40 40 39 38 36 34 31 29 27 26 25 25
45 45 45 44 45 45 44 43 42 42 42 42 42 42 42 42 42 43 44 44 45 45 46 46 45 45 43 43 43 43 41 41 41 40 39 38 36 34 32 30 28 27 27
46 46 45 45 45 45 44 43 43 43 43 43 43 44 44 44 45 46 45 46 47 47 47 46 45 44 44 44 44 43 42 41 40 39 37 37 37 36 34 32 31 29 28
43 44 43 43 43 43 44 44 44 44 44 44 45 45 45 46 47 47 46 47 47 46 45 44 44 42 42 41 41 41 40 38 37 36 35 35 34 34 33 33 31 31 30
41 41 42 42 42 43 43 43 44 44 45 45 46 46 47 48 48 48 48 47 48 47 46 45 43 41 41 40 39 38 37 37 36 33 32 32 33 32 33 32 31 30 29
40 40 41 41 42 43 44 44 45 45 46 46 47 48 49 49 49 49 50 49 48 47 47 45 43 42 40 39 38 37 36 34 33 31 31 31 31 31 31 30 30 29 28
39 40 41 41 42 43 44 46 46 47 47 48 49 50 51 51 51 51 50 50 49 48 47 45 43 42 40 38 36 36 35 33 31 29 28 29 30 30 29 29 29 29 28
37 38 39 40 41 42 43 45 46 47 48 49 50 51 51 52 52 51 51 51 50 49 47 45 43 42 40 38 36 35 34 33 30 29 29 29 29 30 29 29 28 28 27
Wind_Direction
133 128 119 100 83 63 39 23 17 18 19 21 24 28 33 37 39 41 41 40 38 36 35 34 33 31 31 31 30 29 29 29 29 30 31 33 36 38 41 42 39 40 37
145 139 123 89 67 53 35 20 11 10 10 10 12 16 19 23 27 29 31 31 30 28 25 23 23 22 22 23 22 21 21 23 24 23 24 25 27 28 27 26 25 22 13
162 155 135 54 31 34 30 21 10 4 2 2 3 5 8 12 16 19 21 23 23 21 19 17 13 11 10 11 12 12 12 14 17 18 16 16 19 21 22 18 13 6 1
190 184 175 1 10 19 23 19 10 2 359 359 358 358 359 2 5 10 15 18 20 19 16 13 10 6 0 358 358 359 2 3 6 9 9 7 3 9 12 11 9 0 353
219 226 237 293 344 3 10 11 6 1 357 356 355 354 352 352 354 0 6 11 15 16 15 11 8 5 1 353 347 345 348 352 353 354 357 359 351 358 358 359 357 351 343
227 240 252 271 308 339 352 357 357 356 353 352 351 351 349 346 345 349 355 1 6 10 11 10 7 3 359 353 344 336 335 338 341 343 343 347 344 348 346 344 345 341 337
238 249 258 270 287 306 323 334 340 343 343 343 343 343 343 344 342 337 339 346 352 356 360 2 2 1 358 352 344 336 330 328 328 332 334 333 331 334 335 336 333 335 326
251 258 264 270 277 288 300 312 319 322 325 327 328 330 329 327 329 327 323 326 330 336 340 346 350 351 352 350 345 336 330 327 322 321 322 319 317 320 321 324 325 325 320
262 266 271 274 278 283 289 296 300 302 307 310 312 316 319 316 314 315 313 312 314 319 323 327 331 334 338 340 341 338 333 329 322 319 319 314 313 315 314 314 315 315 315
272 272 275 278 280 280 282 286 289 291 295 298 301 305 308 307 305 306 305 304 304 307 311 313 315 319 323 326 329 329 328 328 326 321 319 314 312 311 309 308 307 306 305
280 278 279 280 280 280 281 282 284 286 288 290 293 296 299 299 299 300 300 300 298 299 300 302 303 306 309 312 313 313 315 318 320 322 321 315 313 311 308 306 304 302 299
286 283 282 284 285 284 283 283 284 285 286 287 290 293 295 294 294 295 296 296 296 295 295 295 296 296 298 298 298 298 301 305 308 311 313 313 315 314 311 307 303 301 298
291 290 290 289 290 289 287 286 286 287 288 289 290 293 294 294 294 293 293 293 293 294 293 292 292 292 291 291 290 289 289 292 295 297 299 304 310 312 311 309 306 302 298
293 293 294 294 293 292 291 289 289 290 291 292 292 293 294 295 295 295 294 292 292 292 293 292 290 289 288 287 286 285 284 284 285 287 289 293 297 301 305 306 305 304 301
291 292 293 293 293 293 292 290 290 290 291 293 293 294 295 296 296 295 295 294 293 292 292 291 289 288 286 285 284 284 283 282 281 281 282 285 288 292 296 300 300 301 300
287 289 290 291 291 292 292 291 291 291 291 292 293 293 294 295 295 294 294 294 293 292 291 290 288 286 285 284 283 282 282 280 279 280 279 280 283 286 290 293 294 294 295
285 286 288 289 290 291 291 291 290 291 291 291 291 291 292 293 293 293 294 293 292 291 291 289 287 285 283 283 282 281 280 279 276 276 278 278 279 281 284 288 290 290 290
285 286 287 288 289 289 289 289 289 290 289 289 289 290 290 290 291 292 291 291 291 290 289 287 287 286 285 283 282 281 278 276 273 272 274 277 278 279 280 284 286 287 287
285 285 286 287 287 287 287 287 287 288 287 287 288 288 288 288 289 289 290 290 289 289 287 286 286 286 285 284 282 280 278 274 273 269 268 272 275 278 281 282 284 285 286
283 284 284 284 284 284 284 285 285 285 285 285 286 287 287 287 287 287 287 288 289 289 287 286 285 286 285 285 284 282 280 275 273 271 268 269 273 277 280 283 284 285 285
281 281 281 281 281 281 281 282 281 282 282 282 283 283 285 286 286 286 285 287 289 289 288 287 287 288 286 286 284 283 282 277 273 269 269 270 271 275 280 283 285 286 286
278 279 279 279 279 278 278 278 278 279 279 280 280 281 283 284 284 284 284 286 288 289 289 288 289 288 288 287 286 285 281 277 272 270 269 269 271 275 279 282 284 287 288
278 278 278 277 277 276 276 277 276 277 277 278 279 279 281 281 282 283 285 285 286 287 288 288 288 287 286 284 286 284 279 276 274 270 268 268 271 275 280 282 284 286 287
279 278 276 276 276 275 275 276 276 277 277 278 278 278 279 280 280 281 283 284 285 286 286 286 288 285 284 283 283 280 277 274 268 265 268 269 271 275 279 282 285 286 287
280 278 277 276 276 275 276 276 277 277 278 277 277 277 278 279 279 280 281 281 282 282 284 284 284 282 282 280 278 276 270 269 266 265 266 270 274 276 279 282 285 287 286
282 281 279 278 276 276 276 277 278 279 279 279 278 278 278 278 278 278 278 279 279 280 282 282 282 281 277 276 274 271 268 265 266 267 268 270 274 278 281 283 284 285 286
Height
5928 5928 5928 5928 5928 5928 5928 5928 5927 5926 5925 5923 5922 5921 5919 5918 5917 5915 5914 5913 5912 5911 5909 5908 5907 5906 5905 5904 5903 5902 5901 5900 5899 5898 5898 5897 5897 5897 5897 5897 5897 5897 5897
5929 5929 5930 5930 5929 5929 5929 5929 5928 5927 5926 5925 5923 5922 5921 5920 5918 5917 5916 5914 5913 5912 5911 5910 5908 5907 5906 5906 5905 5904 5903 5902 5901 5900 5899 5899 5898 5898 5898 5898 5898 5898 5898
5930 5930 5930 5931 5930 5930 5930 5929 5929 5928 5927 5926 5925 5923 5922 5921 5920 5918 5917 5916 5914 5913 5912 5911 5910 5908 5908 5907 5906 5905 5904 5903 5902 5902 5901 5900 5900 5899 5899 5898 5898 5898 5898
5931 5931 5931 5931 5931 5931 5930 5930 5930 5929 5928 5927 5926 5925 5923 5922 5921 5919 5918 5917 5916 5914 5913 5912 5911 5910 5909 5908 5907 5906 5905 5904 5903 5903 5902 5901 5901 5900 5900 5899 5899 5899 5898
5931 5931 5931 5931 5931 5931 5931 5930 5930 5929 5929 5928 5927 5925 5924 5923 5921 5920 5919 5918 5917 5915 5914 5913 5911 5910 5909 5908 5907 5906 5906 5905 5904 5903 5903 5903 5901 5901 5900 5900 5899 5899 5899
5931 5931 5931 5931 5931 5931 5931 5930 5930 5929 5929 5928 5927 5926 5924 5923 5922 5921 5920 5918 5917 5916 5915 5913 5912 5911 5910 5909 5908 5907 5906 5905 5904 5903 5903 5902 5901 5901 5900 5900 5899 5899 5898
5931 5931 5931 5931 5931 5931 5930 5930 5930 5929 5929 5928 5927 5926 5925 5923 5922 5921 5920 5919 5917 5916 5915 5914 5913 5911 5910 5909 5907 5906 5905 5905 5904 5903 5903 5902 5901 5901 5900 5900 5899 5899 5898
5931 5931 5930 5930 5930 5930 5930 5929 5929 5929 5928 5927 5927 5925 5924 5923 5922 5921 5919 5918 5917 5916 5915 5914 5913 5912 5910 5909 5907 5906 5905 5904 5903 5903 5902 5902 5901 5900 5900 5899 5899 5898 5898
5930 5930 5930 5929 5929 5929 5929 5928 5928 5927 5927 5926 5925 5924 5923 5922 5921 5920 5919 5918 5917 5916 5915 5914 5912 5911 5910 5909 5907 5906 5905 5903 5903 5902 5901 5900 5900 5899 5899 5898 5898 5897 5897
5929 5929 5929 5928 5928 5928 5927 5927 5926 5926 5925 5924 5923 5922 5922 5921 5920 5918 5917 5917 5916 5915 5914 5913 5912 5910 5909 5908 5907 5905 5904 5903 5902 5901 5900 5899 5898 5898 5897 5897 5896 5896 5895
5927 5928 5927 5927 5926 5926 5925 5925 5924 5924 5923 5922 5921 5920 5920 5919 5918 5917 5916 5915 5914 5913 5912 5911 5910 5909 5908 5907 5906 5904 5903 5902 5901 5900 5899 5897 5896 5896 5895 5895 5894 5894 5893
5925 5925 5925 5925 5924 5924 5923 5922 5922 5921 5921 5920 5919 5918 5917 5917 5916 5915 5914 5913 5912 5911 5910 5909 5908 5907 5906 5905 5904 5903 5902 5900 5899 5898 5897 5896 5894 5893 5893 5892 5892 5891 5891
5923 5923 5923 5923 5922 5921 5921 5920 5919 5919 5918 5917 5916 5916 5915 5914 5913 5913 5911 5910 5909 5908 5907 5906 5905 5904 5903 5902 5901 5900 5899 5898 5897 5896 5895 5894 5892 5891 5890 5889 5889 5888 5888
5921 5921 5920 5920 5919 5918 5918 5917 5916 5916 5915 5914 5913 5912 5912 5911 5910 5910 5909 5908 5906 5905 5904 5903 5902 5901 5900 5899 5898 5897 5896 5895 5894 5893 5892 5891 5890 5889 5887 5886 5886 5885 5884
5918 5917 5917 5916 5916 5915 5914 5913 5913 5912 5911 5910 5910 5909 5908 5907 5906 5905 5904 5903 5902 5901 5900 5899 5898 5897 5896 5895 5894 5893 5892 5891 5890 5890 5889 5888 5886 5885 5884 5883 5882 5881 5880
5914 5913 5912 5912 5911 5910 5909 5908 5907 5907 5906 5905 5905 5904 5903 5901 5901 5900 5899 5898 5896 5895 5894 5893 5892 5891 5890 5889 5888 5887 5886 5885 5885 5884 5884 5883 5882 5881 5880 5879 5878 5877 5876
5908 5908 5907 5906 5905 5905 5904 5902 5901 5901 5900 5899 5898 5897 5897 5895 5895 5894 5893 5892 5890 5889 5888 5886 5885 5884 5883 5882 5882 5881 5880 5879 5878 5878 5877 5877 5877 5876 5876 5875 5874 5873 5872
5901 5901 5901 5900 5899 5898 5897 5896 5895 5894 5893 5892 5891 5890 5890 5889 5887 5887 5885 5884 5883 5882 5880 5879 5877 5876 5875 5874 5873 5872 5871 5871 5871 5870 5870 5870 5870 5870 5870 5869 5868 5867 5866
5894 5894 5894 5893 5891 5891 5889 5888 5887 5886 5885 5884 5883 5882 5882 5881 5880 5878 5877 5876 5874 5873 5872 5870 5869 5868 5866 5865 5864 5863 5862 5862 5862 5862 5862 5863 5863 5863 5862 5862 5862 5861 5860
5886 5885 5885 5884 5882 5881 5880 5880 5879 5878 5877 5876 5874 5874 5873 5872 5872 5870 5869 5867 5866 5864 5863 5861 5860 5858 5857 5855 5854 5853 5852 5852 5852 5853 5854 5854 5855 5855 5855 5854 5854 5854 5853
5876 5876 5876 5875 5873 5872 5871 5871 5869 5869 5868 5867 5866 5865 5864 5863 5862 5861 5860 5859 5857 5855 5853 5852 5850 5848 5847 5845 5843 5842 5842 5842 5843 5845 5845 5846 5846 5847 5846 5846 5846 5846 5846
5867 5867 5867 5866 5864 5863 5862 5861 5860 5859 5859 5858 5857 5856 5855 5854 5852 5851 5850 5849 5847 5845 5843 5842 5840 5839 5837 5835 5834 5833 5832 5833 5833 5835 5836 5836 5837 5838 5838 5838 5838 5837 5837
5859 5858 5857 5856 5855 5853 5852 5851 5850 5849 5849 5848 5847 5846 5845 5844 5842 5841 5840 5839 5837 5835 5834 5832 5831 5829 5828 5827 5826 5825 5824 5825 5825 5825 5825 5827 5829 5830 5830 5830 5830 5829 5829
5849 5848 5847 5846 5845 5844 5842 5841 5840 5839 5838 5838 5837 5835 5834 5833 5832 5830 5830 5828 5827 5825 5824 5823 5822 5821 5820 5819 5818 5816 5816 5816 5816 5817 5817 5819 5820 5822 5822 5821 5821 5821 5821
5840 5839 5838 5836 5835 5834 5832 5830 5829 5828 5827 5826 5825 5824 5823 5822 5821 5819 5818 5817 5816 5815 5814 5814 5812 5811 5810 5810 5809 5808 5808 5808 5808 5809 5811 5811 5812 5813 5814 5814 5813 5813 5813
5831 5829 5828 5827 5825 5824 5822 5821 5819 5817 5816 5814 5813 5811 5810 5809 5809 5808 5807 5806 5805 5804 5804 5803 5802 5801 5801 5800 5800 5799 5799 5800 5800 5801 5803 5804 5805 5805 5805 5806 5806 5805 5805